Volver al catálogo

QIANFAN-184

ActivoComunicacionesPO
NORAD 69402·PAYLOAD·🇨🇳 China

Lanzado Jun 5, 2026 desde Wenchang Space Launch Site

Loading…

Próximos Pases (próximas 24 horas)

TLE

ActualizadoSource: Space-Track

Época: Sep 14, 2026, 12:54 UTC

1 69402U 26125B   26257.53816621  .00000014  00000-0  37877-5 0  9993
2 69402  88.9883 270.9400 0001925  97.5707 262.5663 13.51028562 14009

Sigue QIANFAN-184 en tiempo real con AllMySat

Download on the App Store